Location: Seattle
(47.6064°N, 122.3308°W)
Time: 01:56:54
(UTC-07:00)

STRAND 1 - Pass Details

Date: 08 April 2023
Orbit: 767 x 779 km, 98.4° (Epoch: 02 June)

Event Time Altitude Azimuth Distance (km) Brightness Sun altitude
Rises 05:28:16 0° 119° (ESE) 3,243 ? -11.4°
Reaches altitude 10° 05:31:11 10° 101° (ESE) 2,318 ? -11.0°
Maximum altitude 05:34:39 19° 58° (ENE) 1,788 ? -10.4°
Drops below altitude 10° 05:38:07 10° 15° (NNE) 2,323 ? -9.9°
Sets 05:41:03 0° 358° (N) 3,253 ? -9.4°
